CW7765 Weather Reports


Display with metric or nautical units.
time (UTC)temp
F
wind
direction
speed
MPH
gust
MPH
rain 1hr
in
rain 24hr
in
rain mn
in
humidity
%
barometer
mb
20171216164434 41 203 1.0 8.0 0.00 0.00 0.00 64 1014.7
20171216163436 40 217 5.0 12.0 0.00 0.00 0.00 64 1014.7
20171216162433 40 211 1.0 9.0 0.00 0.00 0.00 65 1014.7
20171216161433 40 217 0.0 9.0 0.00 0.00 0.00 65 1014.8
20171216160433 39 259 7.0 13.0 0.00 0.00 0.00 65 1014.8
20171216155433 39 227 6.0 11.0 0.00 0.00 0.00 66 1014.8
20171216154433 38 221 0.0 12.0 0.00 0.00 0.00 67 1014.9
20171216153434 38 255 7.0 11.0 0.00 0.00 0.00 68 1014.9
20171216152435 38 225 6.0 13.0 0.00 0.00 0.00 68 1014.6
20171216151433 37 222 8.0 11.0 0.00 0.00 0.00 69 1014.2
20171216150433 37 199 0.0 12.0 0.00 0.00 0.00 69 1014.1
20171216145435 37 225 3.0 8.0 0.00 0.00 0.00 70 1013.9
20171216144434 36 232 6.0 13.0 0.00 0.00 0.00 70 1013.7
20171216143433 36 199 7.0 13.0 0.00 0.00 0.00 70 1013.7
20171216142433 36 202 8.0 11.0 0.00 0.00 0.00 71 1013.5
20171216141433 36 218 6.0 14.0 0.00 0.00 0.00 71 1013.6
20171216140433 36 202 6.0 9.0 0.00 0.00 0.00 71 1013.4
20171216135433 36 189 4.0 13.0 0.00 0.00 0.00 71 1013.5
20171216134433 36 251 8.0 12.0 0.00 0.00 0.00 71 1013.5
20171216133434 36 203 6.0 10.0 0.00 0.00 0.00 71 1013.5
20171216132433 36 227 6.0 12.0 0.00 0.00 0.00 70 1013.3
20171216131435 36 207 8.0 15.0 0.00 0.00 0.00 70 1013.4
20171216130434 37 218 9.0 13.0 0.00 0.00 0.00 70 1013.7
20171216125433 37 209 8.0 15.0 0.00 0.00 0.00 70 1013.6
20171216124438 37 205 4.0 13.0 0.00 0.00 0.00 70 1013.5
20171216123433 37 201 7.0 14.0 0.00 0.00 0.00 69 1013.3
20171216122434 37 199 7.0 16.0 0.00 0.00 0.00 69 1013.5
20171216121434 37 191 8.0 18.0 0.00 0.00 0.00 69 1013.2
20171216120434 37 243 7.0 13.0 0.00 0.00 0.00 69 1013.0
20171216115433 37 240 9.0 14.0 0.00 0.00 0.00 69 1012.9
20171216114433 37 203 5.0 13.0 0.00 0.00 0.00 69 1013.0
20171216113433 37 228 9.0 16.0 0.00 0.00 0.00 68 1012.8
20171216112434 38 186 7.0 15.0 0.00 0.00 0.00 68 1012.7
20171216111434 38 213 7.0 15.0 0.00 0.00 0.00 68 1012.6
20171216110433 38 157 7.0 16.0 0.00 0.00 0.00 68 1012.8
20171216105434 37 212 11.0 16.0 0.00 0.00 0.00 68 1012.7
20171216104433 37 223 4.0 14.0 0.00 0.00 0.00 68 1012.6
20171216103434 37 231 7.0 14.0 0.00 0.00 0.00 68 1012.5
20171216102433 37 223 5.0 16.0 0.00 0.00 0.00 68 1012.5
20171216101435 37 202 3.0 16.0 0.00 0.00 0.00 67 1012.7
20171216100435 37 188 4.0 14.0 0.00 0.00 0.00 67 1012.6
20171216095434 37 184 10.0 19.0 0.00 0.00 0.00 66 1012.6
20171216094434 37 184 11.0 14.0 0.00 0.00 0.00 66 1012.7
20171216093434 37 219 6.0 14.0 0.00 0.00 0.00 66 1012.9
20171216092435 37 216 5.0 15.0 0.00 0.00 0.00 65 1013.2
20171216091434 37 187 9.0 12.0 0.00 0.00 0.00 65 1013.3
20171216090434 37 254 9.0 15.0 0.00 0.00 0.00 65 1013.4
20171216085434 37 180 1.0 16.0 0.00 0.00 0.00 64 1013.6
20171216084434 37 221 4.0 16.0 0.00 0.00 0.00 64 1013.6
20171216083434 37 207 4.0 13.0 0.00 0.00 0.00 64 1013.6
20171216082434 37 188 8.0 13.0 0.00 0.00 0.00 63 1013.4
20171216081435 37 202 7.0 15.0 0.00 0.00 0.00 62 1013.7
20171216080434 37 194 10.0 17.0 0.00 0.00 0.00 61 1013.9
20171216075434 37 215 9.0 16.0 0.00 0.00 0.00 61 1014.0
20171216074434 37 232 7.0 17.0 0.00 0.00 0.00 60 1014.0
20171216073434 38 221 9.0 20.0 0.00 0.00 0.00 60 1014.1
20171216072435 38 199 5.0 19.0 0.00 0.00 0.00 60 1014.1
20171216071434 38 253 4.0 16.0 0.00 0.00 0.00 60 1014.1
20171216070435 38 261 11.0 17.0 0.00 0.00 0.00 59 1014.2
20171216065435 38 225 12.0 19.0 0.00 0.00 0.00 59 1014.1
20171216064434 38 242 4.0 17.0 0.00 0.00 0.00 59 1014.2
20171216063434 38 232 6.0 20.0 0.00 0.00 0.00 59 1014.2
20171216062434 38 222 15.0 17.0 0.00 0.00 0.00 59 1014.1
20171216061434 38 232 4.0 17.0 0.00 0.00 0.00 60 1014.1
20171216060435 38 223 7.0 25.0 0.00 0.00 0.00 60 1014.0
20171216055435 38 230 13.0 18.0 0.00 0.00 0.00 61 1014.0
20171216054436 37 237 8.0 20.0 0.00 0.00 0.00 62 1014.1
20171216053434 37 225 5.0 18.0 0.00 0.00 0.00 62 1014.2
20171216052434 37 281 7.0 19.0 0.00 0.00 0.00 63 1014.2
20171216051434 36 223 10.0 17.0 0.00 0.00 0.00 64 1014.3
20171216050434 36 213 8.0 13.0 0.00 0.00 0.00 66 1014.3
20171216045435 35 238 7.0 13.0 0.00 0.00 0.00 66 1014.4
20171216044435 35 213 5.0 13.0 0.00 0.00 0.00 67 1014.3
20171216043434 35 214 6.0 11.0 0.00 0.00 0.00 67 1014.3
20171216042434 35 204 5.0 16.0 0.00 0.00 0.00 67 1014.4
20171216041434 34 224 1.0 11.0 0.00 0.00 0.00 67 1014.5
20171216040436 34 221 4.0 10.0 0.00 0.00 0.00 67 1014.5
20171216035434 34 221 0.0 11.0 0.00 0.00 0.00 67 1014.6
20171216034434 34 243 8.0 11.0 0.00 0.00 0.00 67 1014.7
20171216033435 34 217 5.0 10.0 0.00 0.00 0.00 67 1014.9
20171216032434 34 223 3.0 13.0 0.00 0.00 0.00 67 1015.1
20171216031434 34 225 6.0 12.0 0.00 0.00 0.00 68 1015.3
20171216030434 34 215 8.0 13.0 0.00 0.00 0.00 68 1015.4
20171216025434 34 195 8.0 13.0 0.00 0.00 0.00 68 1015.3
20171216024434 34 227 9.0 14.0 0.00 0.00 0.00 67 1015.3
20171216023435 34 240 5.0 13.0 0.00 0.00 0.00 67 1015.3
20171216022435 34 209 3.0 12.0 0.00 0.00 0.00 67 1015.3
20171216021434 34 211 0.0 13.0 0.00 0.00 0.00 67 1015.3
20171216020435 34 236 5.0 13.0 0.00 0.00 0.00 67 1015.3
20171216015436 34 217 6.0 13.0 0.00 0.00 0.00 67 1015.3
20171216014434 34 239 7.0 12.0 0.00 0.00 0.00 67 1015.4
20171216013435 34 250 10.0 14.0 0.00 0.00 0.00 68 1015.3
20171216012435 34 230 8.0 16.0 0.00 0.00 0.00 67 1015.3
20171216011434 34 241 11.0 13.0 0.00 0.00 0.00 68 1015.3
20171216010435 33 224 5.0 14.0 0.00 0.00 0.00 68 1015.2
20171216005435 33 240 8.0 17.0 0.00 0.00 0.00 68 1015.1
20171216004436 33 240 8.0 14.0 0.00 0.00 0.00 69 1015.2
20171216003435 33 224 8.0 13.0 0.00 0.00 0.00 69 1015.2
20171216002435 33 219 5.0 12.0 0.00 0.00 0.00 70 1015.2
20171216001435 33 229 6.0 10.0 0.00 0.00 0.00 70 1015.2
20171216000437 32 225 11.0 14.0 0.00 0.00 0.00 71 1015.2
20171215235435 32 224 4.0 11.0 0.00 0.00 0.00 72 1015.1
20171215234435 32 230 5.0 13.0 0.00 0.00 0.00 72 1015.0
20171215233435 32 231 7.0 10.0 0.00 0.00 0.00 72 1014.8
20171215232436 33 231 6.0 10.0 0.00 0.00 0.00 72 1014.8
20171215231435 33 248 8.0 14.0 0.00 0.00 0.00 72 1014.9
20171215230435 33 234 8.0 14.0 0.00 0.00 0.00 74 1014.9
20171215225436 33 248 6.0 12.0 0.00 0.00 0.00 73 1014.8
20171215224435 33 254 6.0 15.0 0.00 0.00 0.00 73 1015.0
20171215223435 33 222 5.0 15.0 0.00 0.00 0.00 71 1015.0
20171215222436 33 232 8.0 18.0 0.00 0.00 0.00 70 1014.9
20171215221436 32 237 13.0 18.0 0.00 0.00 0.00 69 1014.7
20171215220435 32 242 5.0 12.0 0.00 0.00 0.00 69 1014.6
20171215215436 32 230 7.0 16.0 0.00 0.00 0.00 69 1014.6
20171215214435 32 222 7.0 17.0 0.00 0.00 0.00 69 1014.6
20171215213436 32 263 4.0 12.0 0.00 0.00 0.00 69 1014.5
20171215212435 32 243 6.0 17.0 0.00 0.00 0.00 70 1014.4
20171215211435 32 274 11.0 19.0 0.00 0.00 0.00 69 1014.4
20171215210436 32 249 9.0 18.0 0.00 0.00 0.00 69 1014.6
20171215205435 32 242 1.0 18.0 0.00 0.00 0.00 69 1014.6
20171215204435 32 242 10.0 17.0 0.00 0.00 0.00 69 1014.5
20171215203436 32 281 0.0 12.0 0.00 0.00 0.00 68 1014.5
20171215202436 32 224 9.0 16.0 0.00 0.00 0.00 68 1014.4
20171215201435 32 254 5.0 15.0 0.00 0.00 0.00 67 1014.4
20171215200435 32 275 4.0 15.0 0.00 0.00 0.00 67 1014.4
20171215195435 32 257 10.0 19.0 0.00 0.00 0.00 66 1014.4
20171215194435 32 261 8.0 19.0 0.00 0.00 0.00 66 1014.4
20171215193435 31 265 13.0 20.0 0.00 0.00 0.00 65 1014.4
20171215192435 31 263 10.0 19.0 0.00 0.00 0.00 64 1014.6
20171215191435 31 281 7.0 19.0 0.00 0.00 0.00 63 1014.5
20171215190435 31 267 3.0 18.0 0.00 0.00 0.00 64 1014.5
20171215185435 31 260 12.0 18.0 0.00 0.00 0.00 64 1014.6
20171215184435 31 286 9.0 20.0 0.00 0.00 0.00 64 1014.6
20171215183437 31 286 9.0 19.0 0.00 0.00 0.00 65 1014.5
20171215182436 30 290 11.0 26.0 0.00 0.00 0.00 64 1014.6
20171215181435 30 282 10.0 20.0 0.00 0.00 0.00 66 1014.7
20171215180436 30 275 6.0 19.0 0.00 0.00 0.00 66 1014.6
20171215175436 29 275 14.0 20.0 0.00 0.00 0.00 67 1014.8
20171215174436 29 259 10.0 20.0 0.00 0.00 0.00 67 1014.9
20171215173436 29 246 7.0 21.0 0.00 0.00 0.00 69 1014.9
20171215172436 29 255 9.0 18.0 0.00 0.00 0.00 68 1014.9
20171215171436 28 252 13.0 21.0 0.00 0.00 0.00 66 1015.0
20171215170436 28 290 11.0 18.0 0.00 0.00 0.00 68 1015.0
20171215165435 28 293 11.0 22.0 0.00 0.00 0.00 69 1015.0